Regional Weather Roundup
Issued by NWS

Home | Current Version | Previous Version | Graphics & Text | Print | Product List | Glossary On
Versions: 1 2 3 4 5 6 7 8 9 10 11 12 13 14 15 16 17 18 19 20 21 22 23 24 25 26 27 28 29 30 31 32 33 34 35 36 37 38 39 40 41 42 43 44 45 46 47 48 49 50
000
ASUS45 KABQ 281910
RWRNM
WEATHER ROUNDUP FOR NEW MEXICO
NATIONAL WEATHER SERVICE ALBUQUERQUE NM
100 PM MDT THU AUG 28 2014

NOTE: "FAIR" MEANS FEW OR NO CLOUDS BELOW 12,000 FEET AGL WITH NO
       SIGNIFICANT WEATHER OR OBSTRUCTIONS TO VISION.

      THIS PRODUCT IS RELEASED AS TWO VERSIONS.  ONE VERSION NEAR
      THE TOP OF THE HOUR CONTAINING PRELIMINARY DATA FROM ALBUQUERQUE
      AND OTHER STATIONS.  A FINAL VERSION WITH ADDITIONAL DATA IS
      ISSUED ABOUT 10 MINUTES AFTER THE HOUR.

NMZ501-503-504-510>518-282000-
NORTHWEST PLATEAU/NORTHCENTRAL MOUNTAINS

CITY           SKY/WX    TMP DP  RH WIND       PRES   REMARKS
FARMINGTON     SUNNY     75  45  34 W18G28    30.20F
LOS ALAMOS     MOSUNNY   66  41  40 S6        30.29F
SANTA FE       PTSUNNY   71  41  33 S6        30.22F
ANGEL FIRE     FAIR      62  41  45 NW10G22   30.33S

$$
NMZ402-403-502-505>509-282000-
WESTCENTRAL MOUNTAINS/SOUTHWEST MOUNTAINS

CITY           SKY/WX    TMP DP  RH WIND       PRES   REMARKS
GALLUP         SUNNY     76  38  25 CALM      30.27F
SILVER CITY    SUNNY     81  41  24 NW6       30.20F

$$
NMZ407-409-411-412-282000-
SOUTHERN DESERTS

CITY           SKY/WX    TMP DP  RH WIND       PRES   REMARKS
LORDSBURG      FAIR      84  46  26 CALM      30.12F
DEMING         SUNNY     87  47  24 VRB3      30.11F
LAS CRUCES     SUNNY     85  45  24 E7        30.14F
HOLLOMAN AFB   SUNNY     87  45  22 NW8       30.08F
ALAMOGORDO     SUNNY     86  45  23 N7        30.10F
T OR C         SUNNY     83  43  24 VRB6      30.15F

$$
NMZ519>523-282000-
CENTRAL VALLEYS/CENTRAL HIGHLANDS

CITY           SKY/WX    TMP DP  RH WIND       PRES   REMARKS
ALBUQUERQUE    MOSUNNY   78  42  27 NW17G24   30.20F
DOUBLE EAGLE   MOSUNNY   75  45  33 NW12G18   30.24F
MORIARTY ARPT  FAIR      74  41  30 NW17G28   30.23F
CLINES CORNERS SUNNY     72  42  34 NW21G30   30.25F
BELEN          MOCLDY    78  42  28 W3        30.19F
SOCORRO        FAIR      82  45  26 N12       30.16F

$$
NMZ524>526-539-540-282000-
SOUTHCENTRAL MOUNTAINS

CITY           SKY/WX    TMP DP  RH WIND       PRES   REMARKS
RUIDOSO        SUNNY     73  45  35 NW15      30.28F

$$
NMZ527>531-282000-
NORTHEAST HIGHLANDS/NORTHEAST PLAINS

CITY           SKY/WX    TMP DP  RH WIND       PRES   REMARKS
LAS VEGAS      PTSUNNY   72  39  30 NE13      30.21F
RATON          PTSUNNY   73  38  27 VRB5      30.16F
CLAYTON        CLOUDY    77  47  34 N7        30.10F

$$
NMZ532>537-282000-
EASTCENTRAL PLAINS

CITY           SKY/WX    TMP DP  RH WIND       PRES   REMARKS
TUCUMCARI      SUNNY     86  44  23 S7        30.03F
CANNON AFB     SUNNY     87  46  23 W13       30.06F
CLOVIS AIRPORT   N/A     88  45  22 W7        30.07S

$$
NMZ028-029-538-282000-
SOUTHEAST PLAINS

CITY           SKY/WX    TMP DP  RH WIND       PRES   REMARKS
ROSWELL        SUNNY     89  48  24 CALM      30.02F
CARLSBAD       SUNNY     92  54  27 NE6       29.99F
HOBBS          PTSUNNY   90  55  31 S7G16     30.02F


$$



USA.gov is the U.S. government's official web portal to all federal, state and local government web resources and services.